Flag for Canada Weather past 2 weeks in Belleville, Ontario, Canada

Now
45 °F

Broken clouds.


Feels Like: 37 °F
Forecast: 42 / 51 °F
Wind: 16 mph from Southwest

Location: Trenton

Current Time: Apr 21, 2015 at 9:31:24 AM

Latest Report: Apr 21, 2015 at 9:00 AM


Visibility: 15 mi

Pressure: 29.57 "Hg

Humidity: 87%

Dew point: 41 °F

Location of BellevilleLocation

Historic Weather in Belleville — Graph

°F

Belleville temperature yesterday

Maximum temperature yesterday: 59 °F (at 4:00 PM)
Minimum temperature yesterday: 43 °F (at 8:00 AM)
Average temperature yesterday: 50 °F

Past Weeks' High & Low Weather Summary

 TemperatureHumidityPressure
High72 °F (Apr 13, 6:00 PM)100% (Apr 8, 4:00 PM)30.44 "Hg (Apr 8, 4:00 PM)
Low30 °F (Apr 13, 5:00 AM)19% (Apr 14, 1:00 PM)29.44 "Hg (Apr 20, 7:00 PM)
Average46 °F67%30.07 "Hg
* Reported Apr 6 8:00 AM — Apr 21 8:00 AM, Belleville, Weather by CustomWeather, © 2015

Note: Actual official high and low records may vary slightly from our data, if they occured in-between our weather recording intervals... More about our weather records

Advertising

Belleville weather history for previous 24 hours

 ConditionsComfort  
Time TempWeatherWind HumidityBarometerVisibility
8:00 AM
Tue, Apr 21
45 °FBroken clouds.10 mph87%29.57 "Hg15 mi
7:00 AM43 °FPassing clouds.12 mph87%29.56 "Hg15 mi
6:00 AM43 °FPassing clouds.10 mph93%29.54 "Hg15 mi
5:00 AM45 °FPassing clouds.8 mph87%29.53 "Hg15 mi
4:00 AM46 °FMostly cloudy.10 mph87%29.51 "Hg15 mi
3:00 AM48 °FMostly cloudy.17 mph82%29.51 "Hg15 mi
2:00 AM48 °FMostly cloudy.9 mph87%29.52 "Hg15 mi
1:00 AM50 °FSprinkles. Mostly cloudy.13 mph88%29.52 "Hg15 mi
12:00 AM50 °FPassing clouds.8 mph88%29.50 "Hg15 mi
11:00 PM
Mon, Apr 20
50 °FPassing clouds.7 mph100%29.49 "Hg15 mi
10:00 PM55 °FMostly cloudy.7 mph94%29.50 "Hg12 mi
9:00 PM55 °FSprinkles. Mostly cloudy.8 mph94%29.47 "Hg15 mi
8:00 PM54 °FSprinkles. Partly sunny.8 mph100%29.46 "Hg10 mi
7:00 PM54 °FBroken clouds.16 mph94%29.44 "Hg15 mi
6:00 PM55 °FLight rain. Overcast.16 mph88%29.45 "Hg9 mi
5:00 PM57 °FLight rain. Mostly cloudy.10 mph77%29.44 "Hg12 mi
4:00 PM59 °FBroken clouds.16 mph77%29.44 "Hg15 mi
3:00 PM57 °FPartly sunny.18 mph77%29.47 "Hg15 mi
2:00 PM57 °FPartly sunny.16 mph94%29.49 "Hg15 mi
1:00 PM50 °FMostly cloudy.9 mph100%29.54 "Hg15 mi
12:00 PM45 °FLight rain. Fog.8 mph100%29.56 "Hg4 mi
11:00 AM43 °FRain. Fog.10 mph100%29.59 "Hg4 mi
10:00 AM43 °FLight rain. Fog.12 mph100%29.61 "Hg6 mi
9:00 AM43 °FRain. Fog.14 mph100%29.66 "Hg5 mi
Weather by CustomWeather, © 2015

See weather overviewHow to use our weather pages